Other Surface Observations
Issued by NWS Tucson, AZ

Home | Current Version | Previous Version | Text Only | Print | Product List | Glossary On
Versions: 1 2 3 4 5 6 7 8 9 10 11 12 13 14 15 16 17 18 19 20 21 22 23 24 25 26 27 28 29 30 31 32 33 34 35 36 37 38 39 40 41 42 43 44 45 46 47 48 49 50
000
SXUS55 KTWC 192215
OSOTWC

WEATHER ROUNDUP FOR SOUTHEAST ARIZONA
NATIONAL WEATHER SERVICE TUCSON AZ
315 PM MST SUN APR 19 2015

AZZ504>506-514-192315-
LOCATION       SKY/WX    TMP DP  RH WIND       PRES   REMARKS
TUCSON         SUNNY     85  16   7 SW9G17    29.89F
DAVIS-MONTHAN  SUNNY     84  16   8 W9        29.87F
CHILDRENS PARK N/A       83  21  10 NW6               PIMA CO DEQ
ALVERNON/22ND  N/A      N/A N/A N/A N/A               PIMA CO DEQ
CHERRY/GLENN   N/A      N/A N/A N/A N/A               PIMA CO DEQ
TANGERINE      N/A       84 N/A N/A NW5               PIMA CO DEQ
CONTL RANCH    N/A       85  22  10 NW7               PIMA CO DEQ
GRANT/1ST      N/A       83  18   9 N4                PIMA CO DEQ
CRAYCROFT/22ND N/A      N/A N/A N/A N/A               PIMA CO DEQ
GOLFLINKS/KOLB N/A      N/A N/A N/A N/A               PIMA CO DEQ
AJO/12TH       N/A       84  16   8 NW4               PIMA CO DEQ
SAGUARO EAST   N/A      N/A N/A N/A N/A               PIMA CO DEQ
FAIRGROUNDS    N/A       82 N/A N/A W6                PIMA CO DEQ
SAGUARO        N/A       86  15   7 W9G19             *SABINO CYN
SAN CARLOS     N/A       86  18   8 W9G18             *SAN CARLOS
GREEN VALLEY   N/A       82  18   9 E4                PIMA CO DEQ
HORSE CAMP CYN N/A       78  17  10 SW13G27           *ARAVAIPA CYN
RINCON MTNS    N/A       63  16  16 SW4G11            *NR MANNING CAMP
$$

AZZ509>511-192315-
LOCATION       SKY/WX    TMP DP  RH WIND       PRES   REMARKS
SAFFORD        MOSUNNY   84  16   8 W15G24    29.85F
STRAY HORSE    N/A       55  25  31 E5G10             *
TRAIL CABIN    N/A       66  21  18 E7G17             *N OF GRANVILLE
BLACK HILLS    N/A       83  16   8 NW12G23           *N OF FT THOMAS
DRY LAKE       N/A       64  15  15 NW7G15            *NATANES MTNS
NOON CREEK     N/A       74  18  12 NE7G22            *PINALENO MTNS
COLUMBINE      N/A       56  -4   8 NW4G11            *PINALENO MTNS
GUTHRIE        N/A       69  14  12 SW16G36           *SW OF GUTHRIE
$$

AZZ502-503-513-192315-
LOCATION       SKY/WX    TMP DP  RH WIND       PRES   REMARKS
NOGALES        SUNNY     80  17   9 W9G17     29.93F
SELLS          N/A       88  16   7 W7G14             *
SASABE         N/A       83  16   8 NW5G11            *ALTAR VLY
HOPKINS        N/A       70  19  14 W9G17             *SANTA RITA MTNS
CARR CYN       N/A       70  20  15 SW3G11            *W OF HEREFORD
$$

AZZ507-508-512-192315-
LOCATION       SKY/WX    TMP DP  RH WIND       PRES   REMARKS
SIERRA VISTA   NOT AVBL
DOUGLAS        SUNNY     78  21  12 NW12      29.93F
EMPIRE MTNS    N/A       77  18  11 N8G14             *LAS CIENEGAS NCA
MULESHOE RANCH N/A       77  16  10 NW10G22           *PRESERVE
HEADQUARTERS   N/A       75  12   9 SW5G12            *CHIRICAHUA MTNS
$$

.............................NOTES.............................
THIS IS AN AUTOMATED COLLECTIVE WITH MINIMAL QUALITY CONTROL.
PIMA CO DEQ SITES HAVE NONSTANDARD WIND SENSOR HEIGHTS.
PIMA CO DEQ SITES DO NOT REPORT WIND GUSTS.
* INDICATES WIND SENSORS LOCATED AT 20 FEET INSTEAD OF 33 FEET.
..............................KEY..............................
SKY/WX - SKY CONDITION/WEATHER
TMP    - TEMPERATURE IN FAHRENHEIT
DP     - DEWPOINT IN FAHRENHEIT
RH     - RELATIVE HUMIDITY IN PERCENT
WIND   - DIRECTION AND SPEED IN MILES PER HOUR (MPH)
VRB    - VARIABLE WIND DIRECTION
PRES   - MEAN SEA LEVEL PRESSURE IN INCHES OF MERCURY
         F - FALLING PRESSURE   R - RISING PRESSURE
         S - STEADY PRESSURE
VSB    - VISIBILITY IN MILES
HX     - HEAT INDEX IN FAHRENHEIT
WCI    - WIND CHILL INDEX IN FAHRENHEIT
N/A    - NOT AVAILABLE
AFB    - AIR FORCE BASE
         DAVIS-MONTHAN IS DAVIS-MONTHAN AIR FORCE BASE
CYN    - CANYON
MTNS   - MOUNTAINS
NCA    - NATIONAL CONSERVATION AREA
NR     - NEAR
VLY    - VALLEY
CONTL  - CONTINENTAL
PIMA CO DEQ - PIMA COUNTY DEPT OF ENVIRONMENTAL QUALITY



USA.gov is the U.S. government's official web portal to all federal, state and local government web resources and services.